Location: Zagreb
(45.8000°N, 16.0000°E)
Time: 14:54:47
(UTC+02:00)

Transit 2A Rocket - Pass Details

Date: 10 August 2022
Orbit: 593 x 907 km, 66.7° (Epoch: 25 September)

Event Time Altitude Azimuth Distance (km) Brightness Sun altitude
Rises 05:48:18 0° 311° (NW) 2,871 7.7 -1.0°
Reaches altitude 10° 05:51:07 10° 292° (WNW) 1,993 6.8 -0.6°
Maximum altitude 05:54:04 18° 251° (WSW) 1,592 6.1 -0.1°
Drops below altitude 10° 05:57:08 10° 209° (SSW) 2,078 6.8 0.4°
Sets 06:00:10 0° 190° (S) 3,047 7.8 0.9°
